Regional Weather Roundup
Issued by NWS Goodland, KS

Home | Current Version | Previous Version | Text Only | Print | Product List | Glossary Off
Versions: 1 2 3 4 5 6 7 8 9 10 11 12 13 14 15 16 17 18 19 20 21 22 23 24 25 26 27 28 29 30 31 32 33 34 35 36 37 38 39 40 41 42 43 44 45 46 47 48 49 50

000
ASUS43 KGLD 240508
RWRGLD

GOODLAND FORECAST AREA HOURLY WEATHER ROUNDUP
NATIONAL WEATHER SERVICE GOODLAND KS
1100 PM MDT WED MAY 23 2018

...OFFICIAL OBSERVATIONS...

CITY           SKY/WX    TMP DP  RH WIND       PRES   REMARKS
GOODLAND KS    CLOUDY    68  59  73 S13       29.97R
HILL CITY KS   CLOUDY    70  58  65 S12G17    29.97R
IMPERIAL NEB   MOCLDY    71  60  68 S16G25    29.92S
MCCOOK NEB     CLOUDY    73  57  57 S13G21    29.95R
AKRON CO       CLOUDY    73  41  31 S32G46    29.98R
BURLINGTON CO  CLOUDY    66  55  67 S15       29.98R
LIMON CO       MOCLDY    63  52  67 NE12      30.03R
$$

...UNOFFICIAL OBSERVATIONS...

CITY           SKY/WX    TMP DP  RH WIND       PRES   REMARKS
COLBY KS       CLOUDY    70  59  68 S18G25    29.98F
NORTON KS      CLEAR     70  57  64 E3        29.96
SHARON SPRINGS   N/A     66  59  78 MISG        N/A
KIT CARSON CO    N/A     66  56  71 MISG        N/A
YUMA CO        FAIR      68  46  45 S15       29.94R
$$



USA.gov is the U.S. government's official web portal to all federal, state and local government web resources and services.